Flag for Switzerland Weather past 2 weeks in Biel, Switzerland

Now
35 °F

Chilly.


Feels Like: 35 °F
Forecast: 32 / 40 °F
Wind: 1 mph from South

Location: Grenchen

Current Time: Mar 4, 2015 at 9:34:40 PM

Latest Report: Mar 4, 2015 at 9:00 PM


Visibility: N/A

Pressure: 30.50 "Hg

Humidity: 80%

Dew point: 29 °F

Location of BielLocation

Historic Weather in Biel — Graph

°F

Biel temperature yesterday

Maximum temperature yesterday: 51 °F (at 4:00 PM)
Minimum temperature yesterday: 33 °F (at 7:00 AM)
Average temperature yesterday: 42 °F

Past Weeks' High & Low Weather Summary

 TemperatureHumidityPressure
High51 °F (Mar 3, 4:00 PM)100% (Feb 20, 1:00 AM)30.75 "Hg (Feb 20, 1:00 AM)
Low25 °F (Feb 20, 6:00 AM)43% (Feb 26, 4:00 PM)29.63 "Hg (Feb 21, 9:00 AM)
Average37 °F85%30.11 "Hg
* Reported Feb 17 8:00 PM — Mar 4 8:00 PM, Biel, Weather by CustomWeather, © 2015

Note: Actual official high and low records may vary slightly from our data, if they occured in-between our weather recording intervals... More about our weather records

Advertising

Biel weather history for previous 24 hours

 ConditionsComfort  
Time TempWeatherWind HumidityBarometerVisibility
8:00 PM
Wed, Mar 4
36 °FChilly.3 mph71%30.47 "HgN/A
7:00 PM39 °FChilly.7 mph58%30.44 "HgN/A
6:00 PM40 °FQuite cool.3 mph54%30.41 "HgN/A
5:00 PM42 °FQuite cool.7 mph57%30.38 "HgN/A
4:00 PM43 °FQuite cool.3 mph56%30.37 "HgN/A
3:00 PM40 °FChilly.2 mph63%30.38 "HgN/A
2:00 PM42 °FQuite cool.2 mph53%30.38 "HgN/A
1:00 PM43 °FQuite cool.3 mph51%30.39 "HgN/A
12:00 PM41 °FQuite cool.5 mph57%30.40 "HgN/A
11:00 AM40 °FQuite cool.5 mph76%30.39 "HgN/A
10:00 AM39 °FChilly.7 mph82%30.39 "HgN/A
9:00 AM38 °FChilly.5 mph86%30.38 "HgN/A
8:00 AM39 °FChilly.3 mph70%30.36 "HgN/A
7:00 AM38 °FChilly.6 mph72%30.34 "HgN/A
6:00 AM39 °FChilly.8 mph70%30.34 "HgN/A
5:00 AM39 °FChilly.9 mph69%30.31 "HgN/A
4:00 AM40 °FChilly.8 mph72%30.29 "HgN/A
3:00 AM42 °FQuite cool.10 mph85%30.28 "HgN/A
2:00 AM42 °FQuite cool.7 mph92%30.28 "HgN/A
1:00 AM43 °FQuite cool.18 mph81%30.27 "HgN/A
12:00 AM44 °FQuite cool.7 mph66%30.25 "HgN/A
11:00 PM
Tue, Mar 3
44 °FQuite cool.5 mph63%30.24 "HgN/A
10:00 PM43 °FQuite cool.3 mph66%30.24 "HgN/A
9:00 PM43 °FQuite cool.2 mph73%30.24 "HgN/A
Weather by CustomWeather, © 2015

See weather overviewHow to use our weather pages